Location: Columbia
(38.9520°N, 92.3340°W)
Time: 11:15:35
(UTC-05:00)

Iridium 52 - Visible Passes

Search period start: 19 October 2017 00:00
Search period end: 29 October 2017 00:00
Orbit: 776 x 779 km, 86.4° (Epoch: 19 October)

Date Brightness Start Highest point End Pass type
(mag) Time Alt. Az. Time Alt. Az. Time Alt. Az.
19 Oct 6.7 06:35:56 10° N 06:41:07 61° E 06:46:15 10° SSE visible
19 Oct 6.6 19:31:19 10° SSW 19:36:28 61° W 19:41:39 10° N visible
20 Oct 7.9 06:02:47 10° NNE 06:07:28 32° E 06:12:06 10° SE visible
20 Oct 6.0 18:57:46 10° S 19:02:57 72° E 19:08:09 10° N visible
20 Oct 9.2 20:42:11 10° W 20:44:13 12° WNW 20:46:16 10° NW visible
21 Oct 8.9 05:30:11 10° NE 05:33:41 18° ENE 05:37:09 10° ESE visible
21 Oct 8.5 20:06:17 10° SW 20:10:21 23° WNW 20:14:26 10° NNW visible
22 Oct 6.1 06:35:59 10° N 06:41:14 89° E 06:46:26 10° S visible
22 Oct 7.4 19:31:43 10° SSW 19:36:37 41° W 19:41:34 10° NNW visible
23 Oct 7.1 06:02:37 10° N 06:07:39 47° E 06:12:39 10° SSE visible
23 Oct 6.2 18:57:50 10° S 19:03:02 79° W 19:08:16 10° N visible
24 Oct 8.3 05:29:38 10° NNE 05:33:57 26° E 05:38:15 10° SE visible
24 Oct 9.0 20:07:33 10° WSW 20:10:38 16° WNW 20:13:45 10° NW visible
25 Oct 9.1 04:57:28 10° NE 05:00:07 14° ENE 05:02:46 10° ESE visible
25 Oct 6.0 06:36:08 10° N 06:41:18 63° W 06:46:26 10° S visible
25 Oct 8.2 19:32:21 10° SW 19:36:50 29° W 19:41:20 10° NNW visible
26 Oct 6.3 06:02:35 10° N 06:07:48 70° E 06:12:59 10° S visible
26 Oct 6.9 18:58:05 10° SSW 19:03:09 53° W 19:08:17 10° N visible
27 Oct 7.5 05:29:21 10° NNE 05:34:10 37° E 05:38:58 10° SSE visible
27 Oct 9.4 20:10:01 10° W 20:10:59 10° WNW 20:11:57 10° WNW visible
28 Oct 8.5 04:56:36 10° NNE 05:00:26 20° ENE 05:04:14 10° SE visible
28 Oct 6.3 06:36:25 10° NNW 06:41:19 43° W 06:46:13 10° SSW visible
28 Oct 8.8 19:33:19 10° SW 19:37:06 20° WNW 19:40:54 10° NNW visible
